Theta_e
283 282 283 283 282 281 281 283 282 283 281 282 285 285 285 284 284 283 283 282 280 280 279 279 278 278 278 277 277 278 277 277 277 276 275 275 274 273 272 272 272 272 271 271
278 281 282 280 282 281 283 281 280 279 279 284 283 284 282 283 283 281 281 283 282 281 281 280 278 278 278 277 277 277 277 276 275 274 274 272 272 271 271 271 270 270 269 269
279 277 277 277 279 281 281 282 283 278 284 278 279 280 280 280 279 280 281 283 283 280 280 280 279 279 277 277 277 275 274 271 271 271 271 270 270 269 269 268 268 267 267 267
273 274 271 277 275 279 283 282 282 278 276 277 278 278 280 279 279 279 279 280 282 280 278 278 278 277 277 277 275 274 272 270 270 270 268 268 267 266 266 266 266 265 265 265
272 271 274 277 275 274 275 275 276 278 279 277 277 275 275 278 279 279 278 278 278 278 278 276 277 277 276 274 274 273 271 271 269 268 265 266 263 264 264 264 264 263 265 263
270 270 269 272 276 278 277 270 274 275 275 273 275 269 273 277 277 277 278 278 278 278 278 276 276 276 274 273 271 270 271 271 269 267 262 262 264 262 262 261 264 264 264 263
272 272 272 274 275 277 269 274 270 273 275 274 273 275 277 278 277 278 278 278 278 277 277 276 275 273 272 271 270 269 269 267 266 265 262 261 260 261 259 259 261 259 260 261
272 270 269 276 276 274 276 276 277 276 276 276 277 278 277 278 278 277 278 278 278 277 276 275 273 273 271 270 269 267 265 265 264 262 260 262 254 256 255 256 255 256 257 259
275 274 276 278 278 279 279 277 277 277 277 278 277 277 277 277 276 277 277 277 277 276 275 272 271 271 270 268 266 264 262 262 259 259 261 261 256 257 256 254 254 257 259 259
273 274 275 277 279 278 279 279 279 279 278 278 277 277 277 276 276 276 276 275 273 270 270 269 267 269 266 265 264 260 257 260 261 260 260 260 261 260 255 255 256 258 258 259
271 274 275 277 278 279 279 279 278 277 278 278 277 277 276 276 276 275 275 273 270 271 272 271 267 265 263 263 261 258 258 260 261 260 259 259 259 259 259 260 260 258 261 265
270 277 277 277 279 279 278 278 278 277 276 276 276 277 276 275 276 275 275 270 269 269 269 266 265 263 260 259 259 258 259 261 261 260 259 259 259 258 263 267 269 271 272 270
276 279 279 280 279 278 278 278 278 276 277 277 276 276 274 275 273 272 268 267 268 266 264 262 262 261 258 256 256 256 256 260 259 259 258 258 257 256 255 259 265 266 268 269
279 278 277 278 278 278 278 278 276 274 274 275 275 270 270 269 265 265 264 263 263 264 262 261 258 258 257 255 254 255 256 259 257 257 256 255 255 255 255 254 253 255 261 264
278 279 281 277 276 276 274 272 271 272 272 269 266 267 266 265 264 264 262 262 263 262 259 257 255 257 254 253 255 255 256 256 256 256 255 255 255 255 254 254 254 254 256 259
275 275 275 275 277 273 271 268 270 272 268 266 265 263 264 263 262 259 257 256 257 256 253 252 254 255 252 253 255 254 255 257 255 252 252 251 253 253 253 253 253 252 254 255
270 269 264 267 272 272 272 272 273 271 267 266 264 261 259 257 254 252 248 248 249 249 249 250 253 251 248 251 252 254 252 250 252 249 249 249 249 250 252 251 251 252 254 256
277 277 273 272 272 272 270 269 265 264 261 261 259 257 255 253 253 249 246 244 247 249 248 250 250 248 247 246 247 249 248 250 248 249 249 249 249 251 251 251 251 253 255 255
271 274 268 269 265 266 264 262 259 259 258 257 256 254 253 251 250 245 242 244 244 245 250 245 256 251 245 246 250 251 250 249 247 246 247 249 248 248 249 250 252 253 252 252
261 262 262 259 258 257 257 256 255 253 251 253 251 251 248 244 242 243 240 245 246 249 246 245 244 245 247 247 253 250 249 249 249 248 246 248 249 249 250 253 253 252 248 248
257 258 257 256 254 253 253 253 253 252 249 250 252 250 248 242 241 242 243 246 248 245 244 247 244 247 248 251 251 246 245 246 247 249 249 251 250 251 253 252 252 250 250 248
252 254 254 253 252 249 248 248 250 250 249 248 247 247 248 246 245 242 244 248 248 250 247 247 247 249 250 255 255 254 254 252 253 252 251 251 252 253 253 253 251 250 249 248
251 252 253 252 251 248 245 247 248 250 249 249 250 249 250 251 250 249 250 247 245 247 250 251 252 256 259 258 257 255 255 254 254 254 254 254 254 254 253 251 250 249 248 247
249 250 248 248 249 249 249 246 249 248 249 247 246 246 249 249 247 246 248 249 250 251 251 252 254 262 259 253 255 255 255 255 255 255 254 255 254 253 250 249 248 249 247 247
246 247 249 248 252 251 252 251 251 249 250 248 247 246 246 248 248 247 245 249 252 253 251 253 260 260 252 254 254 255 255 255 254 254 253 253 252 250 249 248 248 247 247 247
252 252 252 253 253 252 252 252 252 251 251 251 250 245 244 244 247 248 248 250 250 252 251 251 252 254 254 255 255 255 255 255 254 254 254 253 251 251 249 249 248 248 247 247
249 250 249 249 249 251 251 252 251 251 248 245 246 245 244 245 246 249 250 250 251 251 251 251 253 255 254 253 253 253 253 253 254 253 252 252 251 250 250 250 249 248 247 247
Wind_Speed
3 4 5 7 7 10 10 12 13 13 14 7 11 10 10 8 6 7 8 9 9 10 9 9 7 7 7 7 7 6 6 6 5 4 3 3 3 2 3 3 4 5 7 6
2 2 1 5 9 12 17 4 6 4 12 8 5 4 5 8 8 8 9 8 8 8 8 10 9 10 8 7 7 7 7 6 5 3 3 3 3 4 3 4 4 5 6 7
6 4 5 10 10 15 6 6 11 13 14 5 5 7 9 9 8 8 8 8 7 8 9 9 10 9 9 8 6 6 6 5 5 4 3 3 2 2 4 4 5 6 6 7
5 4 8 3 4 1 14 8 9 1 4 6 5 6 5 5 8 9 8 8 7 6 7 8 6 7 5 7 7 7 6 6 5 4 3 2 1 2 3 3 5 7 7 8
5 6 7 4 6 8 9 11 11 11 9 6 5 4 6 7 8 8 9 8 8 7 6 5 7 6 6 6 7 7 7 6 5 3 3 2 2 3 3 4 5 6 7 7
4 5 8 3 1 5 5 7 10 10 9 7 6 2 6 6 6 9 8 5 8 7 4 5 6 6 7 7 7 8 6 5 4 3 3 1 2 3 1 3 7 7 8 8
5 5 8 6 6 5 7 8 3 5 5 7 5 7 4 4 6 7 8 9 5 6 7 8 6 7 7 6 9 5 5 5 4 3 2 1 1 1 2 4 7 6 9 8
2 3 10 7 4 9 6 2 6 6 6 8 7 6 6 7 6 7 10 8 7 6 7 6 7 8 7 9 6 6 5 4 3 1 1 1 1 2 3 4 5 6 7 8
12 8 0 14 4 6 5 6 6 6 7 8 7 7 9 8 9 9 10 9 5 7 7 6 7 8 9 5 8 6 5 4 2 1 2 2 2 4 3 3 4 6 6 7
3 4 5 9 5 3 6 8 6 6 5 6 8 9 7 7 7 8 7 8 5 5 7 7 6 7 4 8 7 6 5 4 3 3 2 3 3 4 3 4 5 6 6 8
1 1 2 7 7 6 9 7 5 5 7 9 7 9 7 7 8 7 7 5 5 8 8 9 8 7 6 7 7 5 4 3 3 2 3 4 5 5 5 6 7 7 8 6
6 9 7 6 10 12 8 8 9 8 6 6 7 9 6 8 8 6 8 3 5 6 6 6 8 7 6 6 6 6 4 4 4 3 3 4 4 5 12 16 17 17 18 11
5 7 8 7 5 7 9 10 8 7 8 8 6 8 5 7 4 4 4 4 6 5 5 6 6 6 5 6 6 5 4 4 3 4 3 4 4 4 6 6 12 9 9 13
7 7 3 5 8 9 8 8 6 4 5 7 7 3 3 4 2 3 3 2 4 5 5 5 5 5 4 6 6 5 5 7 3 3 4 3 4 5 4 5 6 5 7 12
13 11 14 3 4 5 5 4 4 6 5 4 4 4 5 4 4 4 5 4 5 5 5 5 4 5 4 5 5 5 5 4 4 4 4 5 4 4 4 5 5 6 7 6
4 10 8 9 12 5 6 4 5 8 4 3 5 4 4 5 6 6 5 4 4 4 4 4 5 3 4 5 5 4 5 8 5 3 3 3 4 4 4 4 4 4 5 6
5 5 1 6 10 8 10 7 10 5 4 6 6 6 6 7 7 6 5 4 4 3 1 1 4 1 2 4 6 4 3 3 5 3 4 4 4 4 4 4 4 4 6 6
12 9 9 8 8 9 8 7 4 5 3 6 8 7 7 6 5 5 3 2 4 5 3 5 5 4 4 4 4 3 2 4 3 4 3 4 4 4 4 4 4 5 6 5
9 10 6 4 2 4 4 6 5 6 6 8 9 7 6 5 5 5 4 3 3 3 5 3 5 4 3 4 5 3 4 4 4 3 3 4 4 4 4 4 5 5 4 5
4 6 7 6 5 4 7 5 8 8 4 8 9 8 6 3 3 5 2 1 4 4 3 4 4 5 5 5 5 2 4 4 4 4 2 3 4 4 4 6 6 5 4 4
6 6 8 8 7 7 7 5 8 7 5 6 7 6 6 3 3 4 3 2 3 3 3 4 2 3 2 3 3 2 3 3 4 4 4 4 4 5 5 5 5 4 5 4
3 6 8 7 8 7 5 4 6 7 6 6 7 6 6 4 3 2 5 4 3 4 3 3 3 5 4 6 3 4 4 4 4 3 4 4 5 5 6 5 5 5 5 4
5 5 8 6 7 7 4 5 4 6 6 5 5 4 3 2 2 2 2 2 3 4 4 4 5 8 9 5 5 4 4 4 5 5 5 5 5 5 5 5 5 4 5 5
5 6 5 5 8 5 7 2 4 5 5 4 1 2 2 1 3 2 2 4 4 4 3 4 5 10 2 0 1 2 3 4 5 5 5 7 5 5 4 5 6 5 5 5
5 4 5 4 5 5 7 5 5 3 4 4 3 0 2 2 3 3 2 3 5 3 3 5 7 6 1 3 3 4 4 4 5 5 5 5 5 5 5 5 6 6 5 5
4 5 4 5 4 3 3 2 3 2 2 2 1 1 2 2 2 3 3 4 2 3 3 3 3 3 3 3 4 4 5 5 6 6 6 6 5 5 6 6 6 6 6 6
5 5 4 4 2 3 2 2 2 2 2 2 1 3 2 3 3 3 3 2 2 3 3 2 3 4 3 3 4 5 5 5 7 6 5 5 6 6 6 6 6 5 6 6
Wind_Direction
161 149 175 199 189 174 192 215 218 254 228 187 205 201 203 192 191 200 214 215 207 208 204 200 197 204 207 206 193 180 179 178 183 166 130 101 74 38 12 17 8 351 341 338
309 34 271 259 229 176 212 195 240 215 258 184 206 207 163 202 203 223 234 231 215 211 196 198 202 210 205 203 197 177 181 184 168 137 136 91 52 19 3 358 352 341 339 330
223 76 66 276 219 211 188 192 197 214 241 135 196 204 206 220 210 214 223 228 223 212 204 201 204 204 202 199 167 166 160 158 159 146 110 68 31 3 350 341 336 335 330 325
122 84 235 237 41 165 216 234 210 314 216 197 183 204 204 196 194 213 214 214 214 208 209 216 203 199 180 163 162 163 167 165 168 156 115 115 81 357 339 342 338 325 317 308
168 199 336 244 186 164 169 250 179 206 232 178 142 131 248 208 205 207 199 200 199 197 196 192 205 191 166 157 161 164 180 177 172 125 89 37 360 343 336 327 317 301 302 311
162 185 213 269 114 121 106 275 209 179 212 151 126 154 251 197 191 210 207 199 197 196 181 185 208 165 157 174 172 194 175 160 139 119 114 15 341 328 277 296 301 309 302 299
208 231 278 210 195 152 127 248 169 161 155 148 176 201 218 163 205 205 199 200 181 170 200 217 162 152 182 166 202 158 134 127 130 112 101 320 290 273 284 299 300 292 291 288
115 198 267 144 66 174 206 18 144 164 179 184 211 237 223 229 242 216 208 199 200 204 223 201 165 164 181 197 144 136 136 142 148 126 316 287 223 277 288 278 281 283 288 290
192 201 65 184 147 181 157 145 190 184 202 202 208 227 228 222 219 224 213 219 203 203 219 188 174 180 186 171 144 144 146 162 174 220 258 257 245 274 273 248 263 283 286 290
123 182 192 203 232 199 187 206 190 206 194 190 222 235 244 235 226 217 222 229 198 161 205 214 183 175 155 148 142 144 160 192 208 238 275 259 264 255 225 246 260 265 269 276
283 19 70 276 234 217 213 213 195 191 211 218 214 257 236 248 240 227 228 218 177 197 209 215 164 158 148 143 141 156 161 183 219 233 238 264 258 251 251 248 241 246 250 264
203 195 170 200 204 216 210 217 224 217 241 231 198 235 227 241 234 224 237 192 201 211 190 172 165 152 151 147 149 156 178 201 212 215 229 253 263 279 278 281 284 287 293 295
204 180 198 215 224 161 197 217 222 207 224 253 236 219 216 234 232 227 218 199 210 195 136 148 150 149 153 156 152 171 190 205 207 225 228 242 257 263 290 304 302 296 295 312
219 121 234 180 230 185 195 212 196 204 212 211 239 179 216 218 139 181 189 188 135 122 123 135 140 174 168 157 160 184 199 222 205 221 232 234 241 251 258 277 297 299 293 305
230 199 227 126 219 210 168 140 188 227 219 224 195 205 181 197 182 156 117 99 98 107 115 137 158 229 169 155 181 200 206 217 211 223 227 233 242 248 250 256 261 274 305 304
186 197 214 213 239 215 177 181 208 243 201 207 193 177 153 125 116 107 94 96 116 170 184 175 210 217 169 176 200 203 215 229 213 200 220 230 240 239 252 250 256 265 280 291
131 256 187 250 225 224 209 208 208 218 171 184 172 132 110 93 78 74 53 31 45 39 2 209 257 278 213 201 204 222 203 212 221 210 217 221 224 232 240 237 251 256 268 273
215 230 183 184 189 212 225 219 162 142 152 135 108 106 106 114 137 136 103 26 21 339 277 245 254 253 234 218 216 215 195 225 213 222 219 231 234 232 235 238 244 259 277 280
197 226 171 159 126 135 120 128 115 110 113 114 111 113 113 107 124 140 146 84 63 25 288 349 335 11 266 246 210 210 221 228 229 239 225 237 244 237 235 235 250 252 262 281
60 73 96 98 63 78 113 97 106 102 88 105 110 115 115 139 122 105 70 226 217 222 280 279 280 273 266 268 295 211 213 223 234 241 235 233 237 244 241 243 252 260 260 263
107 106 105 104 90 70 81 102 120 121 115 103 119 129 134 140 127 132 87 42 272 245 258 281 253 266 242 256 233 212 212 231 232 239 240 243 250 251 253 251 259 257 268 265
93 101 104 106 99 86 45 53 90 104 102 92 86 110 130 144 159 217 227 196 275 327 324 309 273 255 250 257 222 225 226 227 240 238 240 237 241 252 256 261 264 266 258 258
55 90 106 100 109 110 87 60 78 111 113 107 127 140 120 100 140 102 34 263 252 288 275 273 274 275 268 253 237 223 226 237 247 248 244 243 246 250 258 265 265 262 265 264
43 52 70 102 116 102 95 42 72 60 82 96 129 155 126 74 335 234 272 283 269 281 282 274 286 286 20 43 289 261 257 258 258 258 258 259 255 255 251 257 264 265 259 265
78 80 75 59 74 73 110 122 112 102 105 83 60 72 207 225 171 235 239 271 287 316 289 288 303 326 246 246 242 256 259 257 259 257 260 258 259 251 251 249 254 258 258 256
85 78 66 47 83 107 110 130 99 82 86 82 58 352 309 266 260 265 275 277 282 297 273 274 261 264 249 265 271 270 268 267 264 262 263 259 256 256 254 254 254 254 256 258
76 84 75 71 34 57 60 91 125 128 119 117 208 279 272 299 293 298 302 305 306 279 266 272 267 280 265 261 266 266 266 265 266 268 263 261 260 256 256 258 258 256 258 259